EST,Max TemperatureF,Mean TemperatureF,Min TemperatureF,Max Dew PointF,MeanDew PointF,Min DewpointF,Max Humidity, Mean Humidity, Min Humidity, Max Sea Level PressureIn, Mean Sea Level PressureIn, Min Sea Level PressureIn, Max VisibilityMiles, Mean VisibilityMiles, Min VisibilityMiles, Max Wind SpeedMPH, Mean Wind SpeedMPH, Max Gust SpeedMPH,PrecipitationIn, CloudCover, Events, WindDirDegrees
2011-11-1,59,44,30,37,33,30,100,74,34,30.35,30.29,30.24,10,9,7,10,3,,0.00,0,,231
2011-11-2,64,48,32,37,32,27,100,62,24,30.42,30.35,30.28,10,10,7,9,2,,0.00,0,,215
2011-11-3,68,50,33,48,36,30,100,69,24,30.27,30.09,29.92,10,9,4,14,3,17,0.08,1,Rain,102
2011-11-4,59,54,48,46,42,36,93,74,42,30.18,29.97,29.84,10,8,2,13,5,20,0.36,6,Rain,23
2011-11-5,51,42,32,36,29,23,100,65,33,30.38,30.30,30.19,10,10,5,13,4,17,0.00,0,,86
2011-11-6,60,46,32,39,32,27,93,69,42,30.47,30.41,30.37,10,10,3,12,8,,0.00,0,,64
2011-11-7,68,49,30,43,37,30,100,72,30,30.44,30.39,30.33,10,7,0,13,2,,0.00,2,Fog-Thunderstorm,241
2011-11-8,68,50,32,45,38,32,100,71,28,30.34,30.28,30.21,10,9,2,6,1,,0.00,0,Thunderstorm,84
2011-11-9,68,52,35,52,43,36,100,76,43,30.21,30.12,30.02,10,8,0,9,3,,0.00,2,Fog-Thunderstorm,112
2011-11-10,55,46,35,54,36,18,100,74,48,30.04,29.98,29.91,10,9,4,22,10,34,0.01,6,Rain,280
2011-11-11,44,38,32,25,22,19,65,56,37,30.14,30.05,29.97,10,10,10,23,17,37,0.00,3,Snow,270
2011-11-12,59,46,32,32,27,21,87,51,29,30.26,30.20,30.15,10,10,10,22,9,29,0.00,0,Thunderstorm,251
2011-11-13,60,48,35,34,32,27,87,60,33,30.19,30.13,30.06,10,10,10,6,0,,0.00,1,Thunderstorm,35
2011-11-14,69,54,39,52,44,34,88,73,49,30.11,30.05,29.97,10,10,10,25,5,33,0.00,3,Thunderstorm,253
2011-11-15,62,58,53,61,56,52,100,91,72,30.02,29.99,29.97,10,8,2,21,5,28,0.50,8,Rain,235
2011-11-16,64,57,50,61,54,43,100,92,76,30.00,29.89,29.78,10,6,0,16,2,29,0.63,8,Fog-Rain-Thunderstorm,271
2011-11-17,50,42,33,45,31,14,93,76,41,30.25,30.07,29.93,10,9,2,24,8,34,0.06,6,Rain-Snow,284
2011-11-18,48,37,26,23,14,9,69,41,29,30.46,30.37,30.29,10,10,5,15,7,30,0.00,0,,35
2011-11-19,55,40,26,23,20,18,80,56,28,30.41,30.34,30.27,10,10,10,7,3,,0.00,0,Thunderstorm,92
2011-11-20,68,60,53,54,52,46,94,74,56,30.34,30.30,30.25,10,10,7,15,3,21,0.00,4,Rain-Thunderstorm,248
2011-11-21,60,56,53,59,56,54,100,95,88,30.31,30.26,30.23,10,4,0,16,9,21,0.20,8,Fog-Rain,250
2011-11-22,64,56,51,57,53,50,100,98,73,30.24,30.11,29.92,10,5,0,16,3,25,0.38,7,Fog-Rain-Thunderstorm,132
2011-11-23,48,45,42,43,36,34,82,72,66,30.24,30.01,29.81,10,9,4,34,17,44,0.09,6,Rain,272
2011-11-24,55,45,35,39,35,32,100,73,41,30.41,30.34,30.25,10,9,2,15,8,20,0.00,1,Thunderstorm,245
2011-11-25,64,48,32,36,28,12,100,59,13,30.38,30.33,30.28,10,10,10,13,7,17,0.00,0,,252
2011-11-26,62,46,30,46,32,27,87,61,27,30.35,30.28,30.22,10,10,10,9,2,,0.00,0,,232
2011-11-27,64,58,53,52,47,45,72,61,49,30.19,30.11,30.02,10,10,10,13,5,22,0.00,8,Thunderstorm,180
2011-11-28,62,60,57,59,54,50,100,82,68,30.02,29.94,29.77,10,8,2,18,8,24,0.59,8,Rain,111
2011-11-29,60,46,33,59,37,32,100,82,61,29.79,29.73,29.68,10,8,0,17,7,28,0.43,5,Rain-Snow,191
2011-11-30,39,36,33,34,32,30,93,88,75,30.09,29.91,29.75,10,8,2,25,18,33,0.00,7,Snow,266